Regional Weather Roundup
Issued by NWS

Home | Current Version | Previous Version | Graphics & Text | Print | Product List | Glossary Off
Versions: 1 2 3 4 5 6 7 8 9 10 11 12 13 14 15 16 17 18 19 20 21 22 23 24 25 26 27 28 29 30 31 32 33 34 35 36 37 38 39 40 41 42 43 44 45 46 47 48 49 50

000
ASUS43 KTOP 291808
RWRKS

WEATHER ROUNDUP FOR KANSAS
NATIONAL WEATHER SERVICE GOODLAND KS
100 PM CDT THU SEP 29 2016

NOTE:  "FAIR" INDICATES FEW OR NO CLOUDS BELOW 12,000 FEET WITH NO
SIGNIFICANT WEATHER AND/OR OBSTRUCTIONS TO VISIBILITY.

KSZ001>006-013>018-027>032-041>047-291900-
NORTHWEST KANSAS

CITY           SKY/WX    TMP DP  RH WIND       PRES   REMARKS
GOODLAND       FAIR      71  43  36 S17       30.39F HAZE
6HR MIN TEMP:  40; 6HR MAX TEMP:  71; 6HR PCP: TRACE;

HAYS           FAIR      64  41  42 NE3       30.43F
HILL CITY      FAIR      66  47  50 VRB7      30.43F
6HR MIN TEMP:  39; 6HR MAX TEMP:  66;

RUSSELL        FAIR      65  47  52 N5        30.42F
6HR MIN TEMP:  41; 6HR MAX TEMP:  65;

$$

KSZ061>065-074>080-084>089-291900-
SOUTHWEST KANSAS

CITY           SKY/WX    TMP DP  RH WIND       PRES   REMARKS
DODGE CITY     FAIR      68  41  37 E6        30.42F
6HR MIN TEMP:  39; 6HR MAX TEMP:  69;

ELKHART          N/A     71  43  36 SE13        N/A
GARDEN CITY    FAIR      68  40  35 E9        30.41F
6HR MIN TEMP:  43; 6HR MAX TEMP:  69;

GREAT BEND     FAIR      64  45  48 NE7       30.42F
LIBERAL        FAIR      70  43  37 E8        30.43F
PRATT          FAIR      63  42  46 NE7       30.41F
6HR MIN TEMP:  41; 6HR MAX TEMP:  63;

$$

KSZ066>073-081>083-090>101-291900-
SOUTHEAST KANSAS

CITY           SKY/WX    TMP DP  RH WIND       PRES   REMARKS
CHANUTE        FAIR      69  50  50 N14       30.36F
6HR MIN TEMP:  49; 6HR MAX TEMP:  70;

COFFEYVILLE    FAIR      69  51  52 N8        30.36F
6HR MIN TEMP:  48; 6HR MAX TEMP:  70;

HUTCHINSON     FAIR      66  47  50 E12       30.42F
6HR MIN TEMP:  45; 6HR MAX TEMP:  68;

MEDICINE LODGE   N/A     66  47  50 NE10      30.41F
NEWTON           N/A     65  49  56 N10       30.41F
PARSONS        FAIR      70  51  51 N7        30.37F
6HR MIN TEMP:  44; 6HR MAX TEMP:  70;

WICHITA INTL   FAIR      67  49  52 VRB7      30.40F
6HR MIN TEMP:  49; 6HR MAX TEMP:  68;

WICHITA JABRA  PTSUNNY   65  50  58 N10       30.40F
6HR MIN TEMP:  48; 6HR MAX TEMP:  68;

WICHITA MCCONL FAIR      66  49  54 N9        30.40F
WINFIELD       FAIR      68  50  52 N9        30.40F
6HR MIN TEMP:  45; 6HR MAX TEMP:  70;

$$

KSZ007>012-019>026-033>040-048>060-102>105-291900-
NORTHEAST KANSAS

CITY           SKY/WX    TMP DP  RH WIND       PRES   REMARKS
CONCORDIA      FAIR      64  48  56 VRB5      30.43F
6HR MIN TEMP:  42; 6HR MAX TEMP:  66;

EMPORIA        FAIR      68  49  50 N13       30.38F
6HR MIN TEMP:  46; 6HR MAX TEMP:  68;

LAWRENCE       FAIR      70  51  51 N14       30.37F
6HR MIN TEMP:  47; 6HR MAX TEMP:  70;

MANHATTAN      PTSUNNY   67  50  54 NE8       30.40F
6HR MIN TEMP:  44; 6HR MAX TEMP:  69;

MARYSVILLE     CLOUDY    64  48  55 NE7       30.41F
OLATHE IND     FAIR      68  51  54 N13G20    30.37F
6HR MIN TEMP:  48; 6HR MAX TEMP:  68;

OLATHE EXE     FAIR      67  48  50 N8        30.36F
6HR MIN TEMP:  49; 6HR MAX TEMP:  67;

SALINA         FAIR      65  48  54 CALM      30.43F
6HR MIN TEMP:  46; 6HR MAX TEMP:  67;

TOPEKA BILLARD FAIR      68  51  54 N8G17     30.38F
6HR MIN TEMP:  49; 6HR MAX TEMP:  69;

TOPEKA FORBES  FAIR      69  50  50 N13G20    30.38F
6HR MIN TEMP:  47; 6HR MAX TEMP:  69;

$$




USA.gov is the U.S. government's official web portal to all federal, state and local government web resources and services.